CAPE
73 72 77 89 93 101 89 88 44 27 14 29 19 0 0 0 0 0 0 0 0 0 0 0 0 0 0 0 0 0 0 0 0 0 0 0 0 0 0 0 0 0 0 5 20
79 92 62 80 91 99 102 103 85 47 27 26 37 7 5 17 28 25 0 0 0 0 0 0 0 0 0 0 0 0 0 0 0 0 0 0 0 0 0 0 0 0 6 41 20
68 71 77 56 76 103 90 96 108 87 41 26 40 25 25 36 52 0 22 47 0 0 0 0 0 0 0 0 0 0 0 0 0 0 0 0 0 0 0 0 0 0 6 22 8
81 82 78 88 74 75 102 98 90 112 71 30 50 43 51 60 0 0 0 30 0 0 0 0 0 0 0 0 0 0 0 0 0 0 0 0 0 0 0 0 0 0 0 33 18
74 77 70 71 71 65 78 101 108 111 86 62 55 63 22 21 9 7 45 26 0 0 0 0 0 0 0 0 0 0 0 0 0 0 0 0 0 0 0 0 0 0 0 34 39
79 84 81 80 86 84 95 124 114 107 136 84 76 75 63 48 0 14 106 27 0 0 0 0 0 0 0 0 0 0 0 0 0 0 0 0 0 0 0 0 0 0 0 0 50
79 76 78 83 83 82 94 117 135 91 123 129 110 78 26 6 0 0 81 119 69 35 32 7 0 5 0 0 0 0 0 0 0 0 0 0 0 0 0 0 0 0 0 0 0
73 75 71 88 87 82 82 91 147 113 81 161 140 56 4 1 0 0 32 79 103 69 43 23 10 1 5 0 0 0 0 0 0 0 0 0 0 0 0 0 0 0 0 0 0
73 70 82 85 91 94 88 81 96 140 121 137 19 5 0 0 0 29 56 71 53 39 2 39 42 9 3 41 11 5 0 0 0 0 0 0 0 0 0 0 0 0 0 0 0
77 78 88 88 88 82 84 85 66 91 76 83 31 18 0 37 6 0 26 64 65 38 17 26 12 3 2 41 9 2 0 0 0 0 0 0 0 0 0 0 0 0 0 0 0
87 96 122 120 111 89 60 16 0 10 37 12 21 0 0 0 0 0 50 51 43 45 36 19 0 2 5 3 0 0 0 0 0 0 0 0 0 0 0 0 0 0 0 0 0
91 94 119 162 133 127 43 12 0 2 10 17 9 0 0 0 0 43 48 76 71 19 1 24 5 0 0 0 9 6 2 0 0 0 0 0 0 0 0 0 0 0 0 0 0
112 107 117 171 209 138 21 5 2 19 26 28 8 10 0 0 1 0 66 8 15 18 21 11 0 0 0 0 0 0 0 0 0 0 0 0 0 0 0 0 0 0 0 0 0
149 122 135 212 117 6 24 12 45 16 29 8 73 8 3 13 4 25 88 54 54 2 24 19 0 0 0 0 0 0 0 0 0 0 0 0 0 0 0 0 0 0 0 0 0
159 133 173 157 0 0 18 34 55 6 10 1 6 2 0 0 0 0 78 73 8 19 22 0 0 0 0 0 0 0 1 0 9 25 7 0 14 0 0 0 0 0 0 0 0
134 145 159 130 6 0 26 43 41 14 1 4 4 7 22 9 0 15 82 46 7 17 3 0 0 0 0 0 0 0 23 7 0 9 22 0 3 0 0 0 0 0 0 0 0
144 159 140 34 8 13 55 82 58 11 0 0 3 23 11 20 5 46 28 72 31 36 23 4 0 0 0 15 48 72 46 27 42 5 0 0 0 0 0 0 0 0 0 0 0
186 171 127 32 6 36 77 25 33 0 0 0 1 0 27 20 6 8 38 68 36 1 0 12 10 0 0 2 3 16 46 88 3 2 0 0 0 0 0 0 0 0 0 0 0
219 83 33 28 28 38 63 25 4 0 0 13 12 41 36 35 41 33 36 14 9 2 0 4 3 0 0 0 11 2 47 2 4 1 0 0 0 0 0 0 0 0 0 0 0
80 42 34 54 76 88 15 55 25 1 2 7 26 20 18 30 34 25 24 5 8 2 0 0 2 0 0 1 5 4 0 1 2 0 5 0 0 0 0 0 0 0 0 0 0
48 18 4 18 24 35 16 10 2 0 3 30 20 28 20 55 5 7 0 5 1 9 0 0 0 1 0 6 3 7 10 1 2 2 1 0 0 0 0 0 0 0 0 0 0
32 0 1 9 0 0 0 0 0 1 46 30 34 55 18 11 0 16 0 0 0 0 8 0 0 1 0 0 1 17 20 4 1 1 0 0 0 0 0 0 0 0 0 0 0
0 35 20 1 0 4 3 0 1 3 2 47 4 26 49 106 59 44 0 0 4 8 0 0 1 0 2 1 2 6 2 3 0 0 1 3 0 0 0 0 0 0 0 0 0
1 44 22 4 1 0 2 0 16 6 0 0 4 5 40 6 29 3 0 0 0 0 64 56 1 0 0 0 0 3 2 5 1 0 1 1 2 0 0 0 0 0 0 0 0
1 0 4 4 0 0 0 4 0 27 1 0 0 1 25 59 20 16 8 23 1 14 49 58 0 0 0 0 0 0 0 0 25 22 40 0 2 0 0 0 0 0 0 0 0
0 1 0 0 0 0 0 0 4 49 6 1 1 0 0 0 0 0 0 0 0 1 1 0 2 0 0 0 0 0 0 0 0 4 0 0 0 0 0 0 0 0 0 0 0
0 0 0 0 0 0 0 0 0 5 0 0 0 4 0 0 2 0 0 0 1 15 3 1 0 0 0 0 0 0 0 0 0 0 3 11 0 0 0 0 0 0 0 0 0
CIN
0 -1 -2 -1 -1 0 0 0 -1 -1 -13 -12 -15 0 0 0 0 0 0 0 0 0 0 0 0 0 0 0 0 0 0 0 0 0 0 0 0 0 0 0 0 0 0 -104 -300
0 0 -1 -1 -1 -1 0 0 0 -2 -6 -10 -8 -19 -14 -4 0 0 0 0 0 0 0 0 0 0 0 0 0 0 0 0 0 0 0 0 0 0 0 0 0 0 -203 -294 -292
-1 -1 0 0 -1 0 -1 -1 -1 -2 -4 -9 -9 -21 -21 -11 0 0 -45 -28 0 0 0 0 0 0 0 0 0 0 0 0 0 0 0 0 0 0 0 0 0 0 -80 -273 -291
0 0 0 0 0 0 -1 -1 -2 -1 -4 -7 -7 -14 -12 -7 0 0 0 -33 0 0 0 0 0 0 0 0 0 0 0 0 0 0 0 0 0 0 0 0 0 0 0 -256 -281
-1 -1 -1 0 0 0 -1 -1 -2 -2 -4 -8 -7 -8 -4 0 -6 -42 -63 -71 0 0 0 0 0 0 0 0 0 0 0 0 0 0 0 0 0 0 0 0 0 0 0 -202 -290
-1 -2 -1 -1 0 0 0 0 -1 -3 -3 -7 -8 -8 -1 0 0 -30 -46 -51 0 0 0 0 0 0 0 0 0 0 0 0 0 0 0 0 0 0 0 0 0 0 0 0 -279
-1 -1 -1 -1 0 0 0 0 -1 -7 -8 -5 -5 -3 0 -1 0 0 -17 -24 -44 -44 -31 -35 0 -17 0 0 0 0 0 -2 0 0 0 0 0 0 0 0 0 0 0 0 0
-1 -2 -3 -1 0 0 0 -1 -1 -5 -14 -8 -5 -3 0 -1 0 0 -51 -6 -31 -43 -44 -35 -26 -3 -10 0 0 0 0 0 0 0 0 0 0 0 0 0 0 0 0 0 0
-1 -1 -1 -1 -1 0 -1 -1 -5 -2 -7 -12 -4 -3 0 0 0 -34 -46 -11 -27 -26 -23 -12 -10 -13 -3 -2 -3 -8 0 0 0 0 0 0 0 0 0 0 0 0 0 0 0
-1 -2 -1 -2 -3 -3 -2 -2 -4 -3 -5 -2 -11 -4 0 -2 -7 0 -60 -26 -12 -42 -38 -27 -29 -5 -18 -3 -1 -1 0 0 0 0 0 0 0 0 0 0 0 0 0 0 0
-1 0 0 0 -2 -9 -8 -7 0 -3 0 -20 -5 0 0 0 0 0 -53 -31 -51 -28 -1 -20 0 0 -4 -3 0 0 0 0 0 0 0 0 0 0 0 0 0 0 0 0 0
0 -1 0 0 -1 -5 -22 -3 0 -12 -2 -7 -28 -6 0 0 0 -18 -53 -9 -3 -1 -1 -3 0 0 0 0 -15 -16 -3 0 0 0 0 0 0 0 0 0 0 0 0 0 0
-1 -1 -1 0 0 -1 -12 -6 -31 -49 -8 -27 -26 -8 0 0 -3 0 -16 -8 -24 -8 -4 -3 0 0 0 0 0 0 0 0 0 0 -19 0 0 0 0 0 0 0 0 0 0
0 -1 -2 0 -1 -17 0 -28 -29 -58 0 -10 0 -3 -6 -16 -4 -18 -18 -17 -2 -3 -14 -5 0 0 0 0 0 0 0 0 0 0 0 0 0 0 0 0 0 0 0 0 0
0 0 0 -3 0 0 -8 -20 -47 -89 -7 -25 -2 -8 0 0 0 0 -21 -13 -4 -4 -4 0 0 0 0 0 -2 0 0 0 -12 -10 -27 0 -14 0 0 0 0 0 0 0 0
-1 -1 -2 -2 -23 0 -28 -39 -21 -35 -32 -21 -4 -2 0 -1 0 -36 -8 -25 -13 -15 -6 0 0 0 0 0 0 0 -6 -18 -21 -27 -1 0 -6 0 0 0 0 0 0 0 0
-3 -3 -3 -12 -1 -24 -36 -10 0 -26 0 0 -1 0 0 -1 -1 -6 -1 0 -1 0 -1 -4 0 0 -2 -3 -15 -12 -6 -5 -1 -2 -1 0 0 0 0 0 0 0 0 0 0
0 -2 -4 -13 -21 -16 -9 -5 -3 0 0 0 -1 0 0 -1 -6 -2 0 0 0 -7 0 -1 -2 0 0 -16 -1 -41 -11 -1 -27 -32 0 0 0 0 0 0 0 0 0 0 0
0 -9 -10 -11 -23 -17 0 -4 -16 0 0 -41 -33 -10 -13 0 -10 -1 0 0 -10 -4 0 -1 -3 0 0 0 -9 -11 -6 -80 -35 0 0 0 0 0 0 0 0 0 0 0 0
-2 -8 -1 -12 -14 -2 -19 -3 -5 -25 -58 -43 -42 -6 -4 0 -1 -6 0 -3 -4 -14 0 0 -1 0 0 -13 -26 -3 0 0 -2 0 -2 0 0 0 0 0 0 0 0 0 0
-6 0 0 -18 -10 -1 -12 -2 -23 0 -86 -12 -44 -64 -53 -20 -26 -2 0 -12 -1 -2 -11 -33 0 0 0 0 -2 -21 -1 -3 0 0 -2 0 0 0 0 0 0 0 0 0 0
0 0 -1 -8 0 0 0 0 0 -9 -39 -55 -15 -30 -53 -102 -2 -1 0 0 0 0 -38 -1 0 -1 0 0 -30 -13 -34 -3 -6 -4 0 0 0 0 0 0 0 0 0 0 0
0 0 -1 -3 0 0 -1 0 0 -1 -23 -27 -24 -41 -55 -12 -18 -15 -5 0 -103 -88 0 -2 0 -1 -2 0 0 -7 0 -30 0 0 0 -2 0 0 0 0 0 0 0 0 0
0 -4 -2 -1 0 0 0 -1 -20 -19 0 -3 -30 -20 -11 -14 -40 -36 0 0 -24 -11 -73 -61 0 0 0 0 0 0 0 0 0 0 -5 -29 -33 0 0 0 0 0 0 0 0
0 0 -5 -1 0 0 0 -4 0 -6 -2 0 0 -2 -27 -18 -6 -7 -4 -51 -45 -75 -17 -12 0 0 0 0 0 0 -90 0 -34 -72 -30 0 -72 -70 0 0 0 0 0 0 0
0 -10 0 0 0 0 0 0 -7 -36 -21 0 0 0 0 -70 0 -4 0 0 0 -7 -31 0 -14 0 0 0 0 0 0 0 0 -52 0 0 0 0 0 0 0 0 0 0 0
0 -8 0 0 0 0 0 0 0 0 -4 0 0 -97 -15 0 -39 0 0 0 -130 -70 -10 -20 0 0 0 0 0 0 0 0 0 0 -46 -51 0 0 0 0 0 0 0 0 0
Wind_Speed
9 7 8 10 10 9 8 7 5 5 7 6 6 5 6 6 6 1 4 2 3 4 6 7 7 8 4 3 1 4 4 1 4 2 2 6 4 7 1 3 3 2 4 5 12
10 8 7 8 8 9 9 8 7 6 7 6 5 4 4 3 3 7 9 3 3 3 4 7 8 9 5 5 4 4 4 6 5 4 0 3 5 6 4 7 4 4 6 8 8
10 8 8 7 7 8 9 9 8 8 7 6 5 5 3 2 4 6 14 16 9 4 1 3 5 4 2 4 3 3 4 5 10 1 4 3 5 5 2 2 3 2 7 8 6
12 10 10 9 8 8 8 9 9 9 7 6 6 5 4 2 7 3 10 18 13 6 1 3 3 1 2 3 5 3 7 6 7 3 1 1 5 6 2 6 5 4 11 7 8
11 11 10 10 10 10 9 9 10 10 9 7 6 4 3 4 7 3 8 11 6 6 6 5 3 2 3 3 4 6 7 7 8 5 4 1 4 5 7 12 11 6 9 12 9
11 11 10 10 11 12 10 9 10 11 10 9 7 3 4 13 5 8 9 4 4 4 4 5 5 6 4 4 2 5 4 3 5 6 5 4 6 2 4 9 9 8 9 8 11
13 12 11 11 11 11 10 9 9 12 12 10 9 3 7 14 2 7 6 6 5 7 5 7 7 1 1 3 4 4 3 5 4 6 5 2 5 8 12 9 11 11 8 8 10
14 12 11 11 10 10 9 9 9 10 12 10 9 3 8 6 13 11 8 6 6 6 8 5 5 5 4 3 6 4 0 2 5 8 8 8 13 5 11 5 13 13 10 8 10
13 12 11 11 10 10 9 8 8 9 12 11 4 4 7 6 6 2 3 7 8 3 3 0 2 4 1 4 3 3 4 7 6 9 4 8 8 6 6 5 7 8 8 8 7
14 12 12 11 11 11 9 5 2 4 3 5 2 3 5 4 6 8 3 5 6 5 4 3 1 2 3 5 11 9 6 6 7 7 6 7 11 8 8 8 10 9 9 8 9
15 14 13 12 11 12 7 4 3 2 5 5 9 4 4 10 6 7 6 4 4 3 8 4 4 13 13 9 5 5 4 7 4 5 6 6 10 8 8 7 9 9 9 9 10
16 15 15 14 13 12 7 5 6 4 5 15 6 20 9 4 4 6 8 9 9 7 6 3 19 5 7 8 8 11 10 15 6 4 4 5 11 9 8 11 11 13 13 11 8
18 17 17 15 14 8 9 12 4 8 2 4 15 8 12 5 7 13 16 7 5 9 12 12 5 16 10 10 8 10 16 7 10 5 3 4 13 13 8 15 14 14 14 14 14
19 19 19 17 10 5 6 6 3 6 4 8 10 9 14 2 8 9 18 9 6 17 12 12 8 7 10 17 11 15 9 6 5 4 8 4 12 17 6 10 8 8 9 10 11
19 20 20 21 8 10 6 8 8 4 9 11 12 6 12 17 8 10 14 4 11 8 9 10 8 15 17 15 9 10 6 7 7 6 2 14 4 17 3 4 6 11 13 8 5
21 21 21 14 2 7 8 11 6 11 9 9 12 16 14 20 7 6 14 5 4 5 1 8 1 4 6 8 15 3 1 4 5 3 10 20 8 21 15 16 8 8 5 8 9
20 20 17 9 13 8 10 9 11 14 7 9 11 15 26 15 24 10 19 19 13 13 17 5 4 2 2 5 3 4 5 3 5 6 11 9 10 22 5 4 8 6 9 7 8
19 19 15 9 9 11 12 10 18 10 7 3 9 16 27 24 19 20 18 19 21 10 10 14 9 11 6 9 5 9 12 4 9 7 4 8 12 10 10 16 10 6 8 8 8
18 5 6 8 12 13 10 18 12 6 12 12 7 16 19 23 12 22 22 24 17 24 10 13 9 4 6 6 9 4 10 9 9 3 3 5 7 7 7 3 8 9 9 8 7
6 6 7 11 12 13 13 16 4 9 7 12 16 10 20 25 21 24 26 17 20 17 4 7 3 4 6 4 3 8 5 4 4 5 8 5 6 6 5 8 9 9 9 8 7
5 5 7 10 7 10 10 13 11 5 12 12 21 14 9 15 18 20 12 8 20 22 17 6 4 4 11 13 14 8 6 4 3 3 2 2 5 8 10 11 12 8 8 8 8
4 4 8 12 9 2 11 6 11 3 7 9 5 13 17 19 9 20 21 18 25 26 22 12 6 6 4 1 1 14 11 11 5 5 3 2 4 7 11 10 9 8 8 7 10
3 3 9 12 9 3 5 4 6 9 6 12 8 9 7 12 11 17 19 16 23 21 23 13 5 5 4 5 4 5 5 6 2 4 7 4 5 3 3 6 5 8 7 11 9
4 6 6 6 2 5 4 8 6 13 5 3 7 1 9 12 8 12 18 9 21 23 13 20 6 6 13 6 10 7 9 12 10 3 7 15 3 2 5 7 5 4 13 9 9
3 3 3 9 8 6 7 3 15 7 13 12 3 7 5 5 19 14 15 6 5 22 13 13 14 9 5 4 6 5 13 19 17 16 11 10 13 12 2 9 8 9 9 11 11
7 5 2 4 11 18 16 9 6 7 12 15 16 11 11 6 8 17 13 11 9 9 16 9 4 6 1 5 4 4 9 10 16 14 12 8 12 5 11 8 8 8 8 10 11
4 3 6 10 7 10 10 7 16 9 6 16 21 11 13 17 8 9 7 5 11 17 16 10 5 4 4 5 6 7 10 15 10 10 16 12 14 1 9 10 9 9 11 12 11
Wind_Direction
236 240 247 240 231 229 219 222 237 266 273 281 296 314 313 321 330 281 254 248 116 7 346 322 336 351 326 283 283 34 56 265 258 40 235 355 31 346 141 355 345 136 118 136 135
230 226 232 250 245 230 228 214 217 238 263 276 288 292 285 333 280 256 257 194 165 60 4 1 355 350 358 320 322 105 125 229 238 323 348 89 34 330 52 351 322 53 45 115 126
211 216 223 235 238 239 233 225 211 220 247 271 276 262 253 174 293 246 205 215 194 148 153 309 314 345 300 341 277 225 190 268 299 141 51 2 3 318 67 322 165 99 180 162 150
205 210 220 229 237 237 235 224 219 213 225 241 262 258 189 213 238 310 303 204 166 149 163 265 286 224 258 267 293 311 285 257 278 8 64 334 324 334 283 249 271 163 169 165 174
211 210 215 231 240 245 235 227 217 212 218 226 237 237 136 207 244 357 62 98 111 149 199 218 229 212 229 254 317 259 257 260 280 304 239 278 259 245 284 289 286 282 170 180 189
209 205 207 218 228 236 238 225 221 207 211 217 216 193 244 240 230 218 104 103 146 151 235 235 222 213 269 239 238 302 310 302 321 291 262 246 262 186 267 269 287 259 218 196 188
211 209 212 216 220 228 232 230 219 220 209 207 202 160 244 234 237 359 186 170 177 177 204 237 250 244 21 322 309 278 302 337 292 262 250 296 294 231 245 264 264 262 256 241 217
213 201 202 207 214 220 221 227 224 221 216 203 191 155 250 211 246 288 308 192 190 213 204 254 262 221 170 302 340 338 220 261 241 246 254 159 256 254 271 257 249 242 256 247 247
203 190 191 199 203 209 212 225 231 230 225 205 144 167 264 186 202 210 219 209 193 186 24 54 141 192 61 140 300 254 248 238 290 236 254 182 256 221 256 318 299 269 268 274 270
205 189 190 194 196 195 194 176 212 271 244 213 200 115 291 213 160 186 152 231 201 100 45 69 35 196 128 182 223 222 231 251 236 264 199 210 252 260 278 286 275 258 253 264 278
205 195 188 191 196 192 171 106 93 240 200 199 164 200 272 195 122 174 166 123 106 113 185 208 188 218 217 208 216 256 255 256 309 287 179 235 267 272 278 299 295 277 261 255 257
207 203 198 194 196 200 163 194 180 176 187 222 228 212 249 151 154 171 133 165 187 191 161 151 235 187 194 215 220 246 264 269 285 255 223 261 274 272 264 266 257 264 261 251 247
207 202 197 192 189 198 188 203 347 40 318 221 197 204 211 194 241 193 168 167 180 186 188 208 182 196 190 225 224 225 232 241 242 296 240 311 276 267 244 251 255 260 254 256 241
208 201 195 181 188 138 202 169 146 81 228 212 194 227 185 97 261 181 186 151 219 209 201 220 220 216 210 229 203 240 214 232 251 278 262 135 286 275 272 257 260 266 265 265 240
207 201 196 178 145 180 158 139 129 86 214 186 177 180 166 186 141 210 172 200 185 170 164 211 174 202 225 224 187 253 263 220 219 230 300 250 274 279 240 232 279 284 271 249 286
203 199 194 197 157 151 139 134 101 225 214 170 148 178 164 194 201 150 168 114 145 182 298 205 124 168 212 208 205 214 32 35 10 139 246 248 188 269 259 248 229 271 349 121 106
201 196 188 179 194 156 144 152 196 225 143 183 175 176 187 182 200 176 182 190 185 191 210 157 195 155 127 176 138 125 105 246 223 210 247 173 186 238 259 225 192 242 140 109 102
201 193 197 187 169 169 164 216 212 199 180 207 169 186 191 184 197 201 189 199 199 204 179 204 215 173 167 202 196 206 196 222 218 210 267 160 223 240 229 242 253 133 103 97 98
198 186 179 190 180 175 202 206 212 178 170 152 151 182 196 198 175 196 204 204 203 190 173 196 220 94 183 147 167 181 205 245 270 128 317 232 277 299 232 82 107 103 95 94 93
177 166 189 164 175 178 211 225 215 193 167 181 181 201 194 189 189 190 191 198 201 191 194 201 187 183 168 104 245 202 159 152 200 237 248 276 272 230 127 128 116 112 120 118 85
168 186 180 148 149 213 202 217 215 224 152 208 198 180 198 182 196 191 189 202 199 183 200 166 116 187 135 201 179 174 178 155 129 249 203 261 289 284 161 144 139 136 123 111 103
163 174 164 150 190 208 193 177 200 222 175 175 231 203 210 188 183 196 210 207 186 174 190 202 138 184 183 345 106 204 211 187 185 179 205 218 242 291 153 151 132 141 120 104 75
162 151 167 154 192 175 145 197 220 202 223 150 199 200 200 204 201 196 202 196 185 173 184 175 175 151 167 229 172 188 186 173 89 121 210 222 263 255 187 112 99 112 115 74 76
154 159 168 166 151 182 115 180 184 195 179 172 174 218 170 190 204 216 207 188 181 195 166 161 151 205 221 211 133 186 173 206 185 166 213 217 232 239 197 98 73 61 80 77 66
183 212 184 158 177 177 173 202 181 167 195 201 255 198 187 209 184 194 198 141 194 186 181 157 204 179 241 143 148 175 187 193 205 214 198 223 206 246 101 63 76 57 47 52 44
151 160 158 152 163 171 185 200 215 183 150 178 223 207 213 224 212 182 171 159 169 189 169 178 195 148 123 144 152 204 217 207 215 230 258 249 266 251 112 144 89 69 67 38 30
199 142 120 169 143 167 196 171 192 209 239 192 206 170 197 232 197 201 169 135 152 170 181 162 120 132 206 141 100 300 200 199 204 204 222 230 248 87 108 97 67 50 34 20 10